Fairfield, IL

1:37 AM CDT on August 23, 2017 (GMT -0500)
Fairfield Municipal

Weather History for KFWC - October, 2012

Change the Weather History Date:

Friday, October 26, 2012

  Actual Average (KEVV) Record (KEVV)
Temperature  
Mean Temperature 42 °F -  
Max Temperature 46 °F 66 °F 87 °F (1940)
Min Temperature 39 °F 40 °F 23 °F (1962)
Degree Days  
Heating Degree Days 22    
Moisture  
Dew Point 38 °F    
Average Humidity 79    
Maximum Humidity 93    
Minimum Humidity 66    
Precipitation  
Precipitation 0.71 in - - ()
Sea Level Pressure  
Sea Level Pressure 30.22 in    
Wind  
Wind Speed 11 mph (North)    
Max Wind Speed 17 mph    
Max Gust Speed 25 mph    
Visibility 9 miles    
Events Rain    
Averages and records for this station are not official NWS values.
T = Trace of Precipitation, MM = Missing Value Source: NWS Daily Summary

Daily Weather History Graph

Daily Weather History Graph

Search for Another Location

Airport or City:

Trip Planner

Search our weather history database for the weather conditions in past years. The results will help you decide how hot, cold, wet, or windy it might be!

Date:

Astronomy

Oct. 26, 2012 Rise Set
Actual Time 7:14 AM CDT 6:00 PM CDT
Civil Twilight 6:47 AM CDT 6:27 PM CDT
Nautical Twilight 6:15 AM CDT 6:58 PM CDT
Astronomical Twilight 5:45 AM CDT 7:29 PM CDT
Moon 4:14 PM CDT (10/26) 4:12 AM CDT (10/26)
Length of Visible Light 11h 40m
Length of Day
10h 46m
Waxing Gibbous, 91% of the Moon is Illuminated
Oct 26
Waxing Gibbous
Oct 29
Full
Nov 6
Last Quarter
Nov 13
New
Nov 20
First Quarter

Hourly Weather History & Observations

Time (CDT) Temp. Windchill Dew Point Humidity Pressure Visibility Wind Dir Wind Speed Gust Speed Precip Events Conditions
12:15 AM 44.6 °F 39.2 °F 42.8 °F 93% 30.11 in 4.0 mi NNW 10.4 mph 21.9 mph N/A Rain Rain
12:35 AM 46.4 °F 42.4 °F 42.8 °F 87% 30.12 in 10.0 mi NNW 8.1 mph - 0.10 in Rain Rain
12:55 AM 46.4 °F 41.9 °F 42.8 °F 87% 30.11 in 10.0 mi NNW 9.2 mph - 0.12 in Rain Rain
1:15 AM 46.4 °F 41.9 °F 42.8 °F 87% 30.11 in 10.0 mi North 9.2 mph - 0.03 in Rain Light Rain
1:35 AM 46.4 °F 40.4 °F 42.8 °F 87% 30.11 in 10.0 mi North 13.8 mph 18.4 mph 0.04 in Rain Rain
1:55 AM 46.4 °F 42.4 °F 42.8 °F 87% 30.14 in 10.0 mi NNW 8.1 mph 18.4 mph 0.07 in Rain Rain
2:15 AM 44.6 °F 39.2 °F 42.8 °F 93% 30.16 in 1.8 mi North 10.4 mph 18.4 mph 0.13 in Rain Rain
2:35 AM 44.6 °F 38.8 °F 42.8 °F 93% 30.15 in 3.0 mi North 11.5 mph 16.1 mph 0.22 in   Overcast
2:55 AM 44.6 °F 38.4 °F 42.8 °F 93% 30.16 in 3.0 mi North 12.7 mph 16.1 mph 0.34 in   Overcast
3:15 AM 44.6 °F 38.8 °F 42.8 °F 93% 30.16 in 3.0 mi North 11.5 mph - 0.09 in   Overcast
3:35 AM 44.6 °F 37.8 °F 42.8 °F 93% 30.16 in 5.0 mi NNW 15.0 mph 21.9 mph 0.16 in   Overcast
3:55 AM 44.6 °F 38.4 °F 41.0 °F 87% 30.17 in 10.0 mi North 12.7 mph 19.6 mph 0.18 in Rain Light Rain
4:15 AM 42.8 °F 37.5 °F 39.2 °F 87% 30.17 in 10.0 mi NNW 9.2 mph - N/A Rain Rain
4:35 AM 42.8 °F 38.0 °F 39.2 °F 87% 30.19 in 10.0 mi NNW 8.1 mph 17.3 mph N/A Rain Rain
4:55 AM 42.8 °F 36.2 °F 39.2 °F 87% 30.18 in 10.0 mi North 12.7 mph 23.0 mph N/A   Overcast
5:15 AM 42.8 °F 36.6 °F 39.2 °F 87% 30.18 in 10.0 mi North 11.5 mph 19.6 mph N/A   Overcast
5:35 AM 42.8 °F 36.6 °F 39.2 °F 87% 30.20 in 10.0 mi North 11.5 mph - N/A   Overcast
5:55 AM 42.8 °F 37.5 °F 39.2 °F 87% 30.21 in 10.0 mi North 9.2 mph - N/A   Overcast
6:15 AM 42.8 °F 35.4 °F 37.4 °F 81% 30.21 in 10.0 mi North 15.0 mph 20.7 mph N/A   Overcast
6:35 AM 42.8 °F 36.6 °F 37.4 °F 81% 30.21 in 10.0 mi North 11.5 mph 25.3 mph N/A   Mostly Cloudy
6:55 AM 42.8 °F 37.5 °F 37.4 °F 81% 30.22 in 10.0 mi North 9.2 mph 18.4 mph N/A   Overcast
7:15 AM 42.8 °F 35.8 °F 37.4 °F 81% 30.21 in 10.0 mi North 13.8 mph 19.6 mph N/A   Overcast
7:35 AM 42.8 °F 36.6 °F 37.4 °F 81% 30.23 in 10.0 mi North 11.5 mph 21.9 mph N/A   Overcast
7:55 AM 42.8 °F 35.4 °F 37.4 °F 81% 30.24 in 10.0 mi North 15.0 mph 23.0 mph N/A   Overcast
8:15 AM 42.8 °F 35.4 °F 35.6 °F 76% 30.25 in 10.0 mi North 15.0 mph 23.0 mph N/A   Scattered Clouds
8:35 AM 42.8 °F 35.4 °F 35.6 °F 76% 30.25 in 10.0 mi North 15.0 mph 23.0 mph N/A   Mostly Cloudy
8:55 AM 42.8 °F 35.1 °F 35.6 °F 76% 30.26 in 10.0 mi North 16.1 mph 20.7 mph N/A   Overcast
9:15 AM 42.8 °F 35.8 °F 35.6 °F 76% 30.27 in 10.0 mi North 13.8 mph 23.0 mph N/A   Overcast
9:35 AM 42.8 °F 36.2 °F 35.6 °F 76% 30.28 in 10.0 mi North 12.7 mph 23.0 mph N/A   Overcast
9:55 AM 42.8 °F 35.1 °F 35.6 °F 76% 30.28 in 10.0 mi NNE 16.1 mph - N/A   Mostly Cloudy
10:15 AM 42.8 °F 35.4 °F 35.6 °F 76% 30.28 in 10.0 mi North 15.0 mph 23.0 mph N/A   Mostly Cloudy
10:35 AM 42.8 °F 35.1 °F 35.6 °F 76% 30.27 in 10.0 mi North 16.1 mph 21.9 mph N/A   Overcast
10:55 AM 42.8 °F 35.8 °F 35.6 °F 76% 30.27 in 10.0 mi North 13.8 mph 23.0 mph N/A   Overcast
11:15 AM 42.8 °F 35.4 °F 37.4 °F 81% 30.28 in 10.0 mi North 15.0 mph 18.4 mph N/A   Overcast
11:35 AM 42.8 °F 36.2 °F 37.4 °F 81% 30.29 in 10.0 mi North 12.7 mph 21.9 mph N/A   Overcast
11:55 AM 44.6 °F 38.1 °F 37.4 °F 76% 30.28 in 10.0 mi North 13.8 mph 23.0 mph N/A   Overcast
12:15 PM 44.6 °F 38.8 °F 37.4 °F 76% 30.28 in 10.0 mi North 11.5 mph 19.6 mph N/A   Overcast
12:35 PM 44.6 °F 38.8 °F 37.4 °F 76% 30.29 in 10.0 mi North 11.5 mph - N/A   Overcast
12:55 PM 44.6 °F 38.1 °F 37.4 °F 76% 30.27 in 10.0 mi North 13.8 mph - N/A   Overcast
1:15 PM 44.6 °F 38.4 °F 37.4 °F 76% 30.26 in 10.0 mi North 12.7 mph 19.6 mph N/A   Overcast
1:35 PM 46.4 °F 40.1 °F 37.4 °F 71% 30.25 in 10.0 mi North 15.0 mph 19.6 mph N/A   Overcast
1:55 PM 46.4 °F 39.5 °F 37.4 °F 71% 30.24 in 10.0 mi North 17.3 mph 20.7 mph N/A   Mostly Cloudy
2:15 PM 46.4 °F 41.1 °F 37.4 °F 71% 30.23 in 10.0 mi North 11.5 mph 23.0 mph N/A   Overcast
2:35 PM 46.4 °F 40.4 °F 37.4 °F 71% 30.23 in 10.0 mi North 13.8 mph - N/A   Overcast
2:55 PM 46.4 °F 40.7 °F 37.4 °F 71% 30.23 in 10.0 mi North 12.7 mph - N/A   Overcast
3:15 PM 46.4 °F 40.4 °F 37.4 °F 71% 30.23 in 10.0 mi NNW 13.8 mph 21.9 mph N/A   Overcast
3:35 PM 46.4 °F 40.4 °F 37.4 °F 71% 30.23 in 10.0 mi NNW 13.8 mph - N/A   Overcast
3:55 PM 46.4 °F 41.1 °F 37.4 °F 71% 30.23 in 10.0 mi North 11.5 mph 21.9 mph N/A   Overcast
4:15 PM 46.4 °F 40.4 °F 37.4 °F 71% 30.23 in 10.0 mi North 13.8 mph 20.7 mph N/A   Overcast
4:35 PM 46.4 °F 40.7 °F 37.4 °F 71% 30.22 in 10.0 mi North 12.7 mph 23.0 mph N/A   Overcast
4:55 PM 46.4 °F 40.7 °F 37.4 °F 71% 30.22 in 10.0 mi North 12.7 mph 16.1 mph N/A   Overcast
5:15 PM 46.4 °F 40.4 °F 37.4 °F 71% 30.22 in 10.0 mi North 13.8 mph 20.7 mph N/A   Mostly Cloudy
5:35 PM 46.4 °F 40.1 °F 35.6 °F 66% 30.22 in 10.0 mi North 15.0 mph 21.9 mph N/A   Clear
5:55 PM 46.4 °F 41.1 °F 35.6 °F 66% 30.21 in 10.0 mi North 11.5 mph 17.3 mph N/A   Clear
6:15 PM 44.6 °F 39.7 °F 37.4 °F 76% 30.22 in 10.0 mi North 9.2 mph - N/A   Clear
6:35 PM 44.6 °F 40.2 °F 35.6 °F 71% 30.24 in 10.0 mi North 8.1 mph - N/A   Clear
6:55 PM 44.6 °F 39.2 °F 35.6 °F 71% 30.24 in 10.0 mi North 10.4 mph 17.3 mph N/A   Clear
7:15 PM 44.6 °F 39.7 °F 35.6 °F 71% 30.24 in 10.0 mi North 9.2 mph - N/A   Clear
7:35 PM 42.8 °F 38.0 °F 35.6 °F 76% 30.24 in 10.0 mi North 8.1 mph - N/A   Clear
7:55 PM 42.8 °F 38.6 °F 35.6 °F 76% 30.24 in 10.0 mi North 6.9 mph - N/A   Clear
8:15 PM 42.8 °F 38.6 °F 35.6 °F 76% 30.24 in 10.0 mi North 6.9 mph - N/A   Clear
8:35 PM 42.8 °F 39.3 °F 35.6 °F 76% 30.25 in 10.0 mi North 5.8 mph - N/A   Clear
8:55 PM 42.8 °F 39.3 °F 35.6 °F 76% 30.25 in 10.0 mi NNW 5.8 mph - N/A   Clear
9:15 PM 42.8 °F 39.3 °F 35.6 °F 76% 30.24 in 10.0 mi North 5.8 mph - N/A   Clear
9:35 PM 42.8 °F 38.0 °F 35.6 °F 76% 30.24 in 10.0 mi North 8.1 mph - N/A   Clear
9:55 PM 42.8 °F 37.5 °F 35.6 °F 76% 30.24 in 10.0 mi North 9.2 mph - N/A   Clear
10:15 PM 41.0 °F 35.8 °F 35.6 °F 81% 30.24 in 10.0 mi North 8.1 mph - N/A   Clear
10:35 PM 41.0 °F 35.8 °F 35.6 °F 81% 30.24 in 10.0 mi North 8.1 mph - N/A   Clear
10:55 PM 41.0 °F 36.4 °F 35.6 °F 81% 30.24 in 10.0 mi North 6.9 mph - N/A   Clear
11:15 PM 41.0 °F 35.8 °F 35.6 °F 81% 30.24 in 10.0 mi North 8.1 mph - N/A   Clear
11:35 PM 39.2 °F 33.6 °F 35.6 °F 87% 30.24 in 10.0 mi North 8.1 mph - N/A   Clear
11:55 PM 39.2 °F 33.6 °F 35.6 °F 87% 30.24 in 10.0 mi North 8.1 mph - N/A   Clear